Tracking 31027 objects as of 19-Jul-2025
HD Live streaming from Space Station
objects crossing your sky now

STARLINK-1115

Track STARLINK-1115 now!
10-day predictions
STARLINK-1115 is classified as:


NORAD ID: 44973
Int'l Code: 2020-001BM
Perigee: 333.5 km
Apogee: 345.7 km
Inclination: 53.0 °
Period: 91.2 minutes
Semi major axis: 6710 km
RCS: Unknown
Launch date: January 7, 2020
Source: United States (US)
Launch site: AIR FORCE EASTERN TEST RANGE (AFETR)
Your satellite tracking list
FLOCK 4X 28
Track 1 satellite(s)




NASA's NSSDC Master Catalog

Two Line Element Set (TLE):
1 44973U 20001BM  25199.58335648  .00182853  00000-0  97649-3 0  9993
2 44973  53.0310 195.1146 0009135 353.1010 286.3990 15.79284402  5991
Source of the keplerian elements: AFSPC